DW4465 Weather Reports


Display with metric or nautical units.
time (UTC)temp
F
wind
direction
speed
MPH
gust
MPH
rain 1hr
in
rain 24hr
in
rain mn
in
humidity
%
barometer
mb
20260509130058 61 0 0.0 4.0 0.00 0.00 0.00 86 1013.5
20260509124550 61 171 1.0 4.0 0.00 0.00 0.00 86 1013.4
20260509123043 60 0 0.0 1.0 0.00 0.00 0.00 86 1013.4
20260509121539 60 217 0.0 3.0 0.00 0.00 0.00 86 1013.4
20260509120037 60 0 0.0 3.0 0.00 0.00 0.00 86 1013.6
20260509114537 60 0 0.0 1.0 0.00 0.00 0.00 86 1013.6
20260509113054 60 0 0.0 5.0 0.00 0.00 0.00 86 1013.4
20260509111542 60 0 0.0 2.0 0.00 0.00 0.00 86 1013.5
20260509110040 60 198 0.0 1.0 0.00 0.00 0.00 86 1013.5
20260509104547 60 0 0.0 4.0 0.00 0.00 0.00 86 1013.5
20260509103044 60 0 0.0 1.0 0.00 0.00 0.00 85 1013.6
20260509101559 60 0 0.0 2.0 0.00 0.00 0.00 85 1013.7
20260509100044 60 110 0.0 3.0 0.00 0.00 0.00 85 1013.8
20260509094542 61 0 0.0 4.0 0.00 0.00 0.00 85 1013.9
20260509093038 61 0 1.0 4.0 0.00 0.00 0.00 85 1014.0
20260509091537 61 154 0.0 5.0 0.00 0.00 0.00 85 1014.0
20260509090058 61 131 1.0 4.0 0.00 0.00 0.00 85 1014.0
20260509084546 61 0 1.0 4.0 0.00 0.00 0.00 84 1014.1
20260509083052 61 169 2.0 5.0 0.00 0.00 0.00 84 1014.3
20260509081539 62 167 1.0 5.0 0.00 0.00 0.00 84 1014.3
20260509080042 62 159 1.0 4.0 0.00 0.00 0.00 84 1014.4
20260509074546 62 191 3.0 6.0 0.00 0.00 0.00 84 1014.6
20260509073042 62 199 1.0 4.0 0.00 0.00 0.00 84 1014.6
20260509071543 62 134 0.0 3.0 0.00 0.00 0.00 84 1014.4
20260509070042 62 0 0.0 4.0 0.00 0.00 0.00 84 1014.4
20260509064535 62 0 0.0 3.0 0.00 0.00 0.00 84 1014.6
20260509063044 61 0 0.0 1.0 0.00 0.00 0.00 84 1014.7
20260509061544 61 0 0.0 2.0 0.00 0.00 0.00 84 1014.8
20260509060048 61 0 0.0 3.0 0.00 0.00 0.00 84 1014.9
20260509054540 61 0 0.0 2.0 0.00 0.00 0.00 84 1014.7
20260509053101 61 0 0.0 2.0 0.00 0.00 0.00 84 1014.9
20260509051550 61 0 0.0 2.0 0.00 0.00 0.00 83 1014.8
20260509050043 61 0 0.0 1.0 0.00 0.00 0.00 83 1014.7
20260509044609 61 0 0.0 2.0 0.00 0.00 0.00 82 1014.7
20260509043043 61 0 0.0 2.0 0.00 0.00 0.00 82 1014.6
20260509041538 62 0 0.0 2.0 0.00 0.00 0.00 82 1014.5
20260509040046 62 0 0.0 3.0 0.00 0.00 0.00 81 1014.2
20260509034542 62 355 0.0 3.0 0.00 0.00 0.00 80 1014.0
20260509033039 62 0 0.0 3.0 0.00 0.00 0.00 80 1013.9
20260509031553 63 329 1.0 5.0 0.00 0.00 0.00 79 1013.9
20260509030057 63 300 1.0 4.0 0.00 0.00 0.00 78 1013.6
20260509024542 64 318 1.0 5.0 0.00 0.00 0.00 77 1013.5
20260509023038 65 302 2.0 5.0 0.00 0.00 0.00 76 1013.4
20260509021547 66 0 1.0 5.0 0.00 0.00 0.00 74 1013.3
20260509020045 67 317 1.0 4.0 0.00 0.00 0.00 73 1013.1
20260509014540 69 285 1.0 6.0 0.00 0.00 0.00 70 1013.1
20260509013048 70 302 1.0 7.0 0.00 0.00 0.00 70 1013.1
20260509011556 71 324 2.0 5.0 0.00 0.00 0.00 69 1013.1
20260509010051 71 267 1.0 4.0 0.00 0.00 0.00 68 1012.9
20260509004552 71 144 2.0 9.0 0.00 0.00 0.00 68 1013.0
20260509003053 71 189 4.0 8.0 0.00 0.00 0.00 68 1012.9
20260509001538 72 194 4.0 8.0 0.00 0.00 0.00 68 1013.0
20260509000037 72 202 3.0 10.0 0.00 0.00 0.00 67 1013.0
20260508234543 72 169 4.0 10.0 0.00 0.00 0.00 67 1013.1
20260508233042 72 198 5.0 9.0 0.00 0.00 0.00 66 1013.2
20260508231548 72 166 4.0 10.0 0.00 0.00 0.00 66 1013.4
20260508230044 72 210 4.0 10.0 0.00 0.00 0.00 65 1013.6
20260508224558 73 206 3.0 10.0 0.00 0.00 0.00 65 1013.8
20260508223051 73 162 2.0 10.0 0.00 0.00 0.00 64 1013.9
20260508221542 73 209 4.0 11.0 0.00 0.00 0.00 67 1014.3
20260508220051 72 148 5.0 10.0 0.00 0.00 0.00 66 1014.5
20260508214547 72 189 3.0 9.0 0.00 0.00 0.00 67 1014.6
20260508213045 73 155 4.0 9.0 0.00 0.00 0.00 67 1014.6
20260508211550 73 196 2.0 7.0 0.00 0.00 0.00 67 1014.9
20260508210046 73 215 3.0 7.0 0.00 0.00 0.00 65 1015.0
20260508204540 72 94 3.0 10.0 0.00 0.00 0.00 66 1015.1
20260508203042 71 201 3.0 8.0 0.00 0.00 0.00 69 1015.3
20260508201537 71 206 2.0 8.0 0.00 0.00 0.00 69 1015.5
20260508200037 70 205 3.0 9.0 0.00 0.00 0.00 70 1015.5
20260508194542 70 219 4.0 10.0 0.00 0.00 0.00 70 1015.5
20260508193040 69 130 2.0 8.0 0.00 0.00 0.00 71 1015.7
20260508191548 68 229 1.0 4.0 0.00 0.00 0.00 75 1015.9
20260508190037 67 0 1.0 5.0 0.00 0.00 0.00 76 1016.0
20260508184548 66 150 2.0 6.0 0.00 0.00 0.00 77 1016.2
20260508183046 66 255 0.0 5.0 0.00 0.00 0.00 78 1016.4
20260508181555 65 0 1.0 6.0 0.00 0.00 0.00 79 1016.4
20260508180039 65 213 1.0 5.0 0.00 0.00 0.00 79 1016.5
20260508174554 65 0 0.0 3.0 0.00 0.00 0.00 80 1016.6
20260508173037 64 0 1.0 2.0 0.00 0.00 0.00 80 1016.7
20260508171541 64 144 0.0 4.0 0.00 0.00 0.00 81 1016.7
20260508170039 63 149 1.0 4.0 0.00 0.00 0.00 82 1016.6
20260508164539 63 198 1.0 4.0 0.00 0.00 0.00 82 1016.7
20260508163048 63 155 0.0 2.0 0.00 0.00 0.00 83 1016.6
20260508161552 63 0 0.0 4.0 0.00 0.00 0.00 83 1016.5
20260508160048 62 0 0.0 4.0 0.00 0.00 0.00 84 1016.6
20260508154552 62 78 0.0 4.0 0.00 0.00 0.00 84 1016.4
20260508153047 62 98 0.0 4.0 0.00 0.00 0.00 84 1016.6
20260508151551 62 136 0.0 3.0 0.00 0.00 0.00 84 1016.6
20260508150058 62 119 0.0 3.0 0.00 0.00 0.00 85 1016.7
20260508144542 61 0 0.0 4.0 0.00 0.00 0.00 85 1016.7
20260508143053 61 0 0.0 3.0 0.00 0.00 0.00 85 1016.6
20260508141549 61 167 1.0 4.0 0.00 0.00 0.00 85 1016.5
20260508134545 61 163 0.0 3.0 0.00 0.00 0.00 85 1016.3
20260508133104 61 184 0.0 2.0 0.00 0.00 0.00 85 1016.3
20260508131548 61 167 1.0 5.0 0.00 0.00 0.00 85 1016.1